GW2819 Weather Reports


time (UTC)temp
C
wind
direction
speed
KPH
gust
KPH
rain 1hr
cm
rain 24hr
cm
rain mn
cm
humidity
%
barometer
mb
20260507105004 6 360 0.0 3.2 0.00 2.44 0.48 94 1005.9
20260507104512 6 360 0.0 3.2 0.00 2.44 0.48 94 1005.7
20260507104006 6 360 0.0 3.2 0.00 2.44 0.48 94 1005.7
20260507103507 6 360 1.6 3.2 0.00 2.44 0.48 94 1005.6
20260507103016 6 360 0.0 4.8 0.00 2.44 0.48 94 1005.5
20260507102507 6 360 1.6 4.8 0.00 2.44 0.48 94 1005.4
20260507102010 6 360 0.0 4.8 0.00 2.44 0.48 94 1005.4
20260507101531 6 360 0.0 4.8 0.00 2.44 0.48 95 1005.5
20260507101009 6 360 0.0 4.8 0.00 2.44 0.48 95 1005.5
20260507100507 6 360 1.6 4.8 0.00 2.44 0.48 95 1005.6
20260507100023 6 360 0.0 3.2 0.00 2.44 0.48 95 1005.4
20260507095511 6 360 0.0 3.2 0.00 2.44 0.48 95 1005.3
20260507095002 6 360 0.0 3.2 0.00 2.44 0.48 95 1005.1
20260507094507 6 360 1.6 3.2 0.00 2.44 0.48 95 1005.1
20260507094005 6 360 0.0 3.2 0.00 2.44 0.48 95 1005.2
20260507093506 6 360 0.0 3.2 0.00 2.44 0.48 95 1005.3
20260507093015 6 360 0.0 3.2 0.00 2.44 0.48 95 1005.4
20260507092506 6 360 0.0 3.2 0.03 2.44 0.48 95 1005.4
20260507092011 6 360 0.0 3.2 0.03 2.44 0.48 95 1005.3
20260507091520 6 360 0.0 3.2 0.03 2.44 0.48 95 1005.5
20260507091009 6 360 0.0 3.2 0.03 2.44 0.48 95 1005.6
20260507090508 6 360 0.0 3.2 0.03 2.44 0.48 95 1005.1
20260507090034 6 360 0.0 0.0 0.03 2.44 0.48 95 1004.8
20260507085508 6 360 0.0 0.0 0.03 2.44 0.48 95 1004.8
20260507085009 6 360 0.0 0.0 0.03 2.44 0.48 95 1004.5
20260507084534 6 360 0.0 3.2 0.03 2.44 0.48 95 1004.5
20260507084009 6 360 0.0 3.2 0.03 2.44 0.48 95 1004.8
20260507083505 6 360 0.0 3.2 0.03 2.44 0.48 95 1005.0
20260507083010 6 360 0.0 3.2 0.03 2.44 0.48 95 1005.3
20260507082507 6 360 0.0 3.2 0.00 2.41 0.46 95 1005.2
20260507082007 6 360 0.0 3.2 0.00 2.41 0.46 95 1005.2
20260507081520 6 360 0.0 3.2 0.00 2.41 0.46 95 1005.2
20260507081007 6 360 0.0 3.2 0.00 2.41 0.46 94 1005.3
20260507080510 6 360 0.0 3.2 0.00 2.41 0.46 94 1005.4
20260507080027 6 360 0.0 3.2 0.00 2.41 0.46 94 1005.4
20260507075509 6 360 0.0 3.2 0.00 2.41 0.46 93 1005.2
20260507075010 6 360 0.0 3.2 0.00 2.41 0.46 94 1005.0
20260507074537 7 360 0.0 3.2 0.00 2.41 0.46 94 1004.8
20260507074011 7 360 0.0 3.2 0.00 2.41 0.46 94 1004.8
20260507073510 7 360 0.0 3.2 0.00 2.41 0.46 94 1005.0
20260507073024 7 360 0.0 3.2 0.00 2.41 0.46 94 1004.9
20260507072510 7 360 0.0 3.2 0.00 2.41 0.46 93 1005.0
20260507072009 7 360 0.0 3.2 0.00 2.41 0.46 93 1005.0
20260507071503 7 360 0.0 3.2 0.00 2.41 0.46 93 1004.7
20260507071003 7 360 1.6 6.4 0.00 2.41 0.46 93 1004.7
20260507070503 7 360 1.6 6.4 0.00 2.41 0.46 93 1004.6
20260507070010 7 360 1.6 8.0 0.00 2.41 0.46 93 1004.4
20260507065503 7 360 1.6 8.0 0.03 2.41 0.46 93 1004.6
20260507065004 7 360 3.2 9.7 0.03 2.41 0.46 93 1004.6
20260507064504 7 360 1.6 9.7 0.03 2.41 0.46 93 1004.7
20260507064003 7 360 3.2 9.7 0.05 2.41 0.46 93 1004.7
20260507063504 7 360 1.6 4.8 0.08 2.41 0.46 93 1004.7
20260507063006 7 360 1.6 4.8 0.08 2.41 0.46 93 1004.3
20260507062503 7 360 1.6 4.8 0.10 2.41 0.46 93 1004.4
20260507062002 7 360 0.0 6.4 0.15 2.41 0.46 93 1004.3
20260507061504 7 360 3.2 8.0 0.18 2.41 0.46 93 1004.3
20260507061004 7 360 3.2 8.0 0.20 2.41 0.46 93 1004.1
20260507060504 7 360 1.6 9.7 0.20 2.41 0.46 93 1004.1
20260507060004 7 360 3.2 14.5 0.23 2.41 0.46 93 1004.0
20260507055503 7 360 6.4 16.1 0.20 2.39 0.43 93 1004.1
20260507055003 7 360 3.2 16.1 0.20 2.39 0.43 94 1004.2
20260507054505 8 360 1.6 9.7 0.20 2.39 0.43 94 1004.5
20260507054003 8 360 3.2 8.0 0.20 2.36 0.41 94 1004.5
20260507053505 8 360 1.6 8.0 0.18 2.34 0.38 94 1004.4
20260507053005 8 360 4.8 6.4 0.20 2.34 0.38 94 1004.4
20260507052503 8 360 3.2 8.0 0.20 2.31 0.36 94 1004.6
20260507052005 8 360 1.6 9.7 0.15 2.26 0.30 94 1004.6
20260507051506 8 360 3.2 9.7 0.18 2.24 0.28 94 1004.6
20260507051002 8 360 3.2 8.0 0.23 2.21 0.25 94 1004.7
20260507050503 8 360 1.6 8.0 0.23 2.21 0.25 94 1004.3
20260507050005 8 360 3.2 8.0 0.23 2.18 0.23 94 1004.1
20260507045505 8 360 1.6 6.4 0.23 2.18 0.23 94 1004.2
20260507045004 8 360 1.6 6.4 0.25 2.18 0.23 94 1004.2
20260507044506 8 360 3.2 8.0 0.28 2.18 0.23 94 1004.2
20260507044004 8 360 3.2 12.9 0.25 2.16 0.20 94 1004.1
20260507043504 8 360 3.2 12.9 0.28 2.16 0.20 94 1004.2
20260507043005 8 360 3.2 8.0 0.25 2.13 0.18 94 1004.5
20260507042506 8 360 1.6 8.0 0.25 2.11 0.15 94 1004.5
20260507042004 8 360 3.2 9.7 0.25 2.11 0.15 94 1004.5
20260507041511 9 360 4.8 12.9 0.23 2.06 0.10 94 1004.2
20260507041003 9 360 3.2 12.9 0.18 1.98 0.03 94 1004.4
20260507040504 9 360 4.8 12.9 0.20 1.98 0.03 94 1004.4
20260507040006 9 360 4.8 12.9 0.18 1.96 0.00 94 1004.0
20260507035503 10 360 3.2 14.5 0.20 1.96 1.96 94 1004.1
20260507035003 10 360 3.2 14.5 0.18 1.93 1.93 94 1004.0
20260507034547 10 360 3.2 12.9 0.15 1.91 1.91 94 1003.9
20260507034010 10 360 3.2 12.9 0.18 1.91 1.91 94 1003.6
20260507033512 10 360 4.8 24.1 0.18 1.88 1.88 93 1003.6
20260507033008 10 360 8.0 24.1 0.18 1.88 1.88 93 1003.5
20260507032505 10 360 6.4 19.3 0.18 1.85 1.85 93 1003.4
20260507032006 11 360 4.8 17.7 0.20 1.85 1.85 93 1003.4
20260507031511 12 360 6.4 17.7 0.20 1.83 1.83 94 1003.3
20260507031007 12 360 1.6 3.2 0.20 1.80 1.80 95 1003.1
20260507030502 12 360 0.0 3.2 0.23 1.78 1.78 95 1003.1
20260507030013 12 360 0.0 3.2 0.30 1.78 1.78 95 1003.0
20260507025502 12 360 0.0 3.2 0.33 1.75 1.75 95 1003.0
20260507025003 12 360 0.0 3.2 0.33 1.75 1.75 95 1003.0
20260507024509 12 360 0.0 1.6 0.36 1.75 1.75 95 1003.0
20260507024004 12 360 0.0 3.2 0.36 1.73 1.73 95 1003.0
20260507023508 12 360 0.0 3.2 0.36 1.70 1.70 95 1003.0
20260507023008 12 360 0.0 3.2 0.38 1.70 1.70 95 1003.1
20260507022505 12 360 0.0 3.2 0.38 1.68 1.68 95 1003.1
20260507022006 12 360 0.0 4.8 0.41 1.65 1.65 95 1003.2
20260507021508 12 360 0.0 4.8 0.38 1.63 1.63 95 1003.2
20260507021007 12 360 0.0 8.0 0.36 1.60 1.60 95 1003.3
20260507020507 12 360 1.6 9.7 0.30 1.55 1.55 95 1003.4
20260507020009 12 360 1.6 9.7 0.23 1.47 1.47 95 1003.4
20260507015506 12 360 1.6 9.7 0.18 1.42 1.42 95 1003.3
20260507015007 12 360 1.6 14.5 0.18 1.42 1.42 95 1003.2
20260507014521 12 360 3.2 16.1 0.15 1.40 1.40 95 1003.3
20260507014004 12 360 4.8 19.3 0.15 1.37 1.37 95 1003.3
20260507013504 12 360 3.2 19.3 0.13 1.32 1.32 95 1003.4
20260507013013 12 360 3.2 9.7 0.10 1.32 1.32 95 1003.5
20260507012504 12 360 4.8 16.1 0.08 1.30 1.30 95 1003.5
20260507012006 12 360 6.4 16.1 0.03 1.24 1.24 95 1003.5
20260507011521 12 360 3.2 14.5 0.03 1.24 1.24 95 1003.6
20260507011005 12 360 4.8 12.9 0.03 1.24 1.24 95 1003.8
20260507010506 12 360 3.2 9.7 0.03 1.24 1.24 95 1003.8
20260507010018 12 360 3.2 19.3 0.03 1.24 1.24 95 1003.8
20260507005507 12 360 1.6 19.3 0.03 1.24 1.24 95 1003.9
20260507005006 12 360 1.6 16.1 0.03 1.24 1.24 95 1004.0
20260507004508 12 360 3.2 17.7 0.03 1.24 1.24 95 1004.0
20260507004007 12 360 1.6 17.7 0.00 1.22 1.22 95 1004.1
20260507003512 12 360 3.2 9.7 0.00 1.22 1.22 95 1004.1
20260507003016 12 360 3.2 12.9 0.00 1.22 1.22 95 1004.2
20260507002506 12 360 1.6 12.9 0.00 1.22 1.22 94 1004.2
20260507002007 12 360 3.2 14.5 0.00 1.22 1.22 94 1004.3
20260507001517 12 360 1.6 14.5 0.00 1.24 1.22 94 1004.2
20260507001004 12 360 3.2 14.5 0.00 1.24 1.22 94 1004.2
20260507000507 12 360 4.8 12.9 0.00 1.24 1.22 94 1004.3
20260507000016 12 360 1.6 12.9 0.00 1.24 1.22 94 1004.4
20260506235507 12 360 1.6 9.7 0.00 1.24 1.22 94 1004.5
20260506235007 12 360 1.6 12.9 0.00 1.24 1.22 94 1004.5
20260506234516 12 360 3.2 12.9 0.03 1.24 1.22 94 1004.6
20260506234008 12 360 3.2 9.7 0.05 1.24 1.22 94 1004.6
20260506233508 12 360 0.0 14.5 0.05 1.24 1.22 94 1004.6
20260506233018 12 360 3.2 14.5 0.08 1.24 1.22 94 1004.6
20260506232510 12 360 8.0 14.5 0.08 1.24 1.22 94 1004.6
20260506232007 12 360 1.6 8.0 0.10 1.24 1.22 94 1004.7
20260506231515 12 360 1.6 8.0 0.10 1.24 1.22 94 1004.8
20260506231005 12 360 0.0 9.7 0.13 1.24 1.22 94 1004.8
20260506230501 13 360 1.6 9.7 0.13 1.24 1.22 94 1004.8
20260506230007 13 360 1.6 6.4 0.15 1.24 1.22 94 1004.8
20260506225503 13 360 3.2 6.4 0.15 1.24 1.22 94 1004.8
20260506225004 13 360 0.0 4.8 0.18 1.24 1.22 94 1004.9
20260506224526 13 360 1.6 4.8 0.15 1.22 1.19 94 1004.9
20260506224002 13 360 0.0 3.2 0.13 1.19 1.17 94 1004.9
20260506223503 13 360 0.0 6.4 0.15 1.19 1.17 94 1005.0
20260506223011 13 360 3.2 14.5 0.15 1.17 1.14 94 1005.0
20260506222506 13 360 1.6 14.5 0.18 1.17 1.14 94 1005.0
20260506222006 13 360 4.8 16.1 0.15 1.14 1.12 94 1005.0
20260506221518 13 360 6.4 17.7 0.18 1.14 1.12 94 1005.1
20260506221005 13 360 4.8 17.7 0.18 1.12 1.09 94 1005.2
20260506220506 13 360 8.0 19.3 0.18 1.12 1.09 94 1005.2
20260506220020 13 360 6.4 19.3 0.18 1.09 1.07 94 1005.3
20260506215503 13 360 4.8 24.1 0.18 1.09 1.07 94 1005.1
20260506215003 13 360 8.0 24.1 0.18 1.07 1.04 94 1005.2
20260506214503 13 360 3.2 14.5 0.18 1.07 1.04 94 1005.1
20260506214002 13 360 1.6 19.3 0.18 1.07 1.04 94 1005.1
20260506213503 13 360 4.8 19.3 0.18 1.04 1.02 94 1005.0
20260506213006 13 360 3.2 14.5 0.15 1.02 0.99 94 1005.0
20260506212505 13 360 3.2 16.1 0.15 0.99 0.97 94 1005.1
20260506212006 13 360 4.8 16.1 0.18 0.99 0.97 93 1005.2
20260506211519 13 360 3.2 16.1 0.18 0.97 0.94 93 1005.2
20260506211006 13 360 4.8 17.7 0.15 0.94 0.91 93 1005.3
20260506210509 13 360 1.6 30.6 0.18 0.94 0.91 93 1005.3
20260506210021 13 360 3.2 30.6 0.18 0.91 0.89 93 1005.4
20260506205511 13 360 4.8 16.1 0.20 0.91 0.89 93 1005.5
20260506205010 13 360 1.6 8.0 0.20 0.89 0.86 93 1005.5
20260506204524 13 360 1.6 17.7 0.23 0.89 0.86 93 1005.5
20260506204010 13 360 3.2 17.7 0.25 0.89 0.86 93 1005.5
20260506203503 13 360 3.2 17.7 0.25 0.86 0.84 93 1005.5
20260506203010 13 360 6.4 12.9 0.28 0.86 0.84 93 1005.6
20260506202502 13 360 1.6 14.5 0.28 0.84 0.81 93 1005.6
20260506202002 13 360 4.8 16.1 0.28 0.81 0.79 93 1005.6
20260506201508 13 360 4.8 16.1 0.28 0.79 0.76 93 1005.7
20260506201005 13 360 4.8 12.9 0.30 0.79 0.76 92 1005.6
20260506200506 13 360 3.2 16.1 0.30 0.76 0.74 92 1005.6
20260506200016 13 360 3.2 16.1 0.33 0.74 0.71 92 1005.6
20260506195509 13 360 3.2 12.9 0.33 0.71 0.69 93 1005.6
20260506195009 13 360 3.2 19.3 0.36 0.69 0.66 92 1005.7
20260506194525 13 360 3.2 19.3 0.36 0.66 0.64 92 1005.8
20260506194012 13 360 3.2 12.9 0.36 0.64 0.61 92 1005.8
20260506193507 14 360 4.8 9.7 0.36 0.61 0.58 92 1005.7
20260506193031 14 360 0.0 12.9 0.38 0.58 0.56 92 1005.7
20260506192503 14 360 4.8 12.9 0.36 0.56 0.53 92 1005.7
20260506192004 14 360 4.8 12.9 0.36 0.53 0.51 92 1005.7
20260506191519 14 360 4.8 14.5 0.36 0.51 0.48 92 1005.7
20260506191004 14 360 4.8 14.5 0.36 0.48 0.46 91 1005.7
20260506190506 14 360 1.6 4.8 0.33 0.46 0.43 91 1005.6
20260506190011 14 360 1.6 4.8 0.30 0.41 0.38 91 1005.5
20260506185506 15 360 1.6 4.8 0.28 0.38 0.36 91 1005.6
20260506185009 15 360 0.0 4.8 0.25 0.33 0.30 91 1005.8
20260506184524 15 360 1.6 4.8 0.23 0.30 0.28 90 1005.9
20260506184008 15 360 1.6 4.8 0.20 0.28 0.25 90 1005.9
20260506183507 15 360 0.0 4.8 0.18 0.25 0.23 90 1006.1
20260506183020 15 360 1.6 4.8 0.13 0.20 0.18 89 1006.0
20260506182507 15 360 0.0 4.8 0.13 0.20 0.18 89 1006.0
20260506182011 15 360 1.6 6.4 0.10 0.18 0.15 88 1006.2
20260506181527 15 360 1.6 6.4 0.08 0.15 0.13 87 1006.3
20260506181004 16 360 3.2 6.4 0.05 0.13 0.10 86 1006.3
20260506180504 16 360 0.0 6.4 0.08 0.13 0.10 86 1006.4
20260506180010 16 360 0.0 4.8 0.05 0.10 0.08 84 1006.3
20260506175504 16 360 1.6 4.8 0.05 0.10 0.08 83 1006.5
20260506175005 16 360 1.6 8.0 0.03 0.08 0.05 83 1006.8
20260506174523 16 360 3.2 9.7 0.03 0.08 0.05 82 1006.6
20260506174012 16 360 3.2 8.0 0.05 0.08 0.05 82 1006.7
20260506173510 16 360 3.2 8.0 0.05 0.08 0.05 84 1006.6
20260506173016 16 360 1.6 8.0 0.05 0.08 0.05 85 1006.5
20260506172508 16 360 1.6 4.8 0.05 0.08 0.05 86 1006.6
20260506172015 16 360 1.6 6.4 0.05 0.08 0.05 86 1006.6
20260506171522 16 360 1.6 6.4 0.05 0.08 0.05 85 1006.8
20260506171011 16 360 1.6 4.8 0.05 0.08 0.05 86 1007.1
20260506170508 16 360 0.0 4.8 0.03 0.05 0.03 86 1007.3
20260506170024 16 360 1.6 4.8 0.03 0.05 0.03 84 1007.1
20260506165502 16 360 0.0 4.8 0.03 0.05 0.03 83 1007.6
20260506165007 16 360 1.6 4.8 0.03 0.05 0.03 82 1007.7
20260506164524 16 360 1.6 6.4 0.03 0.05 0.03 80 1007.9
20260506164007 16 360 1.6 12.9 0.00 0.03 0.00 79 1007.7
20260506163507 16 360 1.6 12.9 0.00 0.03 0.00 77 1007.8
20260506163017 16 360 3.2 8.0 0.00 0.03 0.00 76 1008.2
20260506162512 16 360 1.6 6.4 0.00 0.03 0.00 76 1008.1
20260506162012 16 360 3.2 9.7 0.00 0.03 0.00 76 1008.1
20260506161524 16 360 4.8 9.7 0.00 0.03 0.00 76 1008.1
20260506161011 16 360 3.2 12.9 0.00 0.03 0.00 76 1008.1
20260506160508 17 360 3.2 12.9 0.00 0.03 0.00 76 1008.0
20260506160023 16 360 3.2 12.9 0.00 0.03 0.00 76 1007.9
20260506155509 16 360 3.2 8.0 0.00 0.03 0.00 75 1007.9
20260506155010 16 360 1.6 6.4 0.00 0.03 0.00 75 1008.0
20260506154526 16 360 0.0 8.0 0.00 0.03 0.00 76 1008.1
20260506154007 16 360 3.2 8.0 0.00 0.03 0.00 75 1008.2
20260506153508 16 360 3.2 9.7 0.00 0.03 0.00 76 1008.3
20260506153015 16 360 1.6 9.7 0.00 0.03 0.00 76 1008.4
20260506152510 16 360 3.2 9.7 0.00 0.03 0.00 76 1008.2
20260506152009 16 360 3.2 6.4 0.00 0.03 0.00 76 1008.2
20260506151520 16 360 1.6 4.8 0.00 0.03 0.00 76 1008.0
20260506151012 16 360 1.6 6.4 0.00 0.03 0.00 76 1008.0
20260506150508 16 360 3.2 6.4 0.00 0.03 0.00 77 1008.1
20260506150024 15 360 0.0 8.0 0.00 0.03 0.00 77 1008.1
20260506145512 15 360 4.8 8.0 0.00 0.03 0.00 77 1008.0
20260506145009 15 360 1.6 6.4 0.00 0.03 0.00 78 1008.0
20260506144548 15 360 1.6 9.7 0.00 0.03 0.00 78 1008.2
20260506144010 15 360 4.8 9.7 0.00 0.03 0.00 78 1008.3
20260506143509 15 360 3.2 12.9 0.00 0.03 0.00 78 1008.5
20260506143026 15 360 3.2 14.5 0.00 0.03 0.00 78 1008.4
20260506142509 15 360 1.6 14.5 0.00 0.03 0.00 78 1008.6
20260506142008 15 360 1.6 12.9 0.00 0.03 0.00 78 1008.4
20260506141516 15 360 3.2 12.9 0.00 0.03 0.00 77 1008.5
20260506141006 15 360 0.0 4.8 0.00 0.03 0.00 78 1008.5
20260506140504 15 360 1.6 3.2 0.00 0.03 0.00 78 1008.6
20260506140005 15 360 1.6 3.2 0.00 0.03 0.00 78 1008.7
20260506135504 15 360 1.6 3.2 0.00 0.03 0.00 78 1008.6
20260506135003 15 360 0.0 3.2 0.00 0.03 0.00 79 1008.6
20260506134504 15 360 0.0 3.2 0.00 0.03 0.00 79 1008.6
20260506134004 15 360 0.0 3.2 0.00 0.03 0.00 79 1008.7
20260506133511 15 360 0.0 3.2 0.00 0.03 0.00 79 1008.7
20260506133011 15 360 0.0 4.8 0.00 0.03 0.00 78 1008.7
20260506132508 15 360 1.6 4.8 0.00 0.03 0.00 79 1008.7
20260506132006 15 360 0.0 3.2 0.00 0.03 0.00 79 1008.9
20260506131519 15 360 0.0 3.2 0.00 0.03 0.00 79 1008.8
20260506131007 15 360 1.6 3.2 0.00 0.03 0.00 79 1008.8
20260506130512 15 360 1.6 3.2 0.00 0.03 0.00 80 1009.0
20260506130021 15 360 0.0 3.2 0.00 0.03 0.00 80 1009.0
20260506125503 14 360 0.0 6.4 0.00 0.03 0.00 81 1009.1
20260506125002 14 360 3.2 6.4 0.00 0.03 0.00 81 1009.1
20260506124504 14 360 1.6 4.8 0.00 0.03 0.00 82 1009.3
20260506124003 13 360 3.2 4.8 0.00 0.03 0.00 83 1009.3
20260506123504 13 161 1.6 4.8 0.00 0.03 0.00 83 1009.6
20260506123010 13 360 0.0 4.8 0.00 0.03 0.00 83 1009.6
20260506122506 13 360 3.2 4.8 0.00 0.03 0.00 84 1009.5
20260506122007 13 360 0.0 4.8 0.00 0.03 0.00 84 1009.6
20260506121514 13 360 0.0 8.0 0.00 0.03 0.00 85 1009.7
20260506121007 13 360 1.6 8.0 0.00 0.03 0.00 85 1009.4
20260506120507 12 360 1.6 4.8 0.00 0.03 0.00 86 1009.4
20260506120024 12 360 3.2 4.8 0.00 0.03 0.00 86 1009.5
20260506115514 12 360 0.0 4.8 0.00 0.03 0.00 88 1009.5
20260506115009 12 360 1.6 4.8 0.00 0.03 0.00 87 1009.5
20260506114526 12 360 1.6 6.4 0.00 0.03 0.00 88 1009.6
20260506114007 12 360 1.6 6.4 0.00 0.03 0.00 88 1009.4
20260506113504 12 360 3.2 4.8 0.00 0.03 0.00 89 1009.4
20260506113006 12 360 1.6 3.2 0.00 0.03 0.00 90 1009.6
20260506112503 11 360 0.0 3.2 0.00 0.03 0.00 91 1009.7
20260506112007 11 360 0.0 3.2 0.00 0.03 0.00 92 1009.7
20260506111509 11 360 0.0 3.2 0.00 0.03 0.00 93 1009.7
20260506111008 11 360 0.0 3.2 0.00 0.03 0.00 93 1009.8
20260506110509 11 360 0.0 3.2 0.00 0.03 0.00 94 1009.7
20260506110015 11 360 0.0 3.2 0.00 0.03 0.00 94 1009.9
20260506105508 10 360 0.0 0.0 0.00 0.03 0.00 94 1009.7